Tracking 22879 objects as of 22-Apr-2021
HD Live streaming from Space Station
objects crossing your sky now

STARLINK-1782

Track STARLINK-1782 now!
10-day predictions
STARLINK-1782 is classified as:


NORAD ID: 47548
Int'l Code: 2021-009A
Perigee: 384.0 km
Apogee: 389.3 km
Inclination: 53.1 °
Period: 92.1 minutes
Semi major axis: 6757 km
RCS: Unknown
Launch date: February 4, 2021
Source: United States (US)
Launch site: AIR FORCE EASTERN TEST RANGE (AFETR)
aabbcc
Your satellite tracking list
Your tracking list is empty




NASA's NSSDC Master Catalog

Two Line Element Set (TLE):
1 47548U 21009A   21111.58334491 -.00106022  00000-0 -11641-2 0  9991
2 47548  53.0524 110.2608 0003915   2.9839 301.7566 15.62809291  1761
Source of the keplerian elements: AFSPC